This demonstration page uses our WeatherBlox Daily Observations layout. Learn more.

Left ArrowRight Arrow

39.08367, -84.50855

Hourly Observations for May 5, 2017

Temp ( °F °C ) Dew Point ( °F °C ) Humidity (%) Winds ( mph kmh ) Pressure ( in mb ) Visibility ( mi km ) Precip ( " mm )
12:08 am 00:08 Cloudy with Light Rain 57 14 57 14 100 100 VRB 3 6 29.59 1002 9 14.48406 N/A
12:27 am 00:27 Cloudy with Light Rain 58 14.4 58 14.4 100 100 NNE 6 9 29.59 1002 9 14.48406 0.02 0.508
12:35 am 00:35 Cloudy with Light Rain 58 14.4 58 14.4 100 100 NE 6 9 29.56 1001 10 16.0934 0.02 0.508
12:49 am 00:49 Cloudy with Light Rain 57 14 57 14 100 100 NE 7 11 29.56 1001 10 16.0934 0.03 0.762
12:53 am 00:53 Cloudy with Light Rain 58 14.4 58 14.4 100 100 NE 9 15 29.56 1001 10 16.0934 0.03 0.762
1:53 am 01:53 Cloudy 58 14.4 57 13.9 97 97 NNE 8 13 29.55 1001 10 16.0934 N/A
2:53 am 02:53 Cloudy 57 13.9 56 13.3 96 96 NNW 9 15 29.53 1000 7 11.26538 N/A
3:53 am 03:53 Cloudy with Mist and Fog 55 12.8 55 12.8 100 100 N 9 15 29.51 999 5 8.0467 N/A
4:53 am 04:53 Cloudy with Mist and Fog 53 11.7 53 11.7 100 100 NNE 14 22 29.44 997 5 8.0467 N/A
5:53 am 05:53 Cloudy 52 11.1 51 10.6 97 97 N 12 19 29.46 998 10 16.0934 N/A
6:53 am 06:53 Cloudy with Heavy Rain 50 10 50 10 100 100 NNE 14 22 29.44 997 2 3.21868 0.08 2.032
6:59 am 06:59 Cloudy with Rain 50 10 50 10 100 100 N 14 22 29.44 997 3 4.82802 0.01 0.254
7:20 am 07:20 Cloudy with Light Rain 50 10 48 9 94 94 N 13 20 29.44 997 4 6.43736 N/A
7:36 am 07:36 Cloudy with Heavy Rain 50 10 49 9.4 96 96 N 10 17 29.47 998 3 4.82802 0.12 3.048
7:43 am 07:43 Cloudy with Heavy Rain 50 10 49 9.4 96 96 N 14 22 29.47 998 2 3.21868 0.18 4.572
7:50 am 07:50 Cloudy with Heavy Rain 48 9 48 9 100 100 N 15 24 29.47 998 1 1.60934 N/A
7:53 am 07:53 Cloudy with Heavy Rain 49 9.4 48 8.9 97 97 NNE 15 24 29.44 997 1 1.60934 0.35 8.89
8:03 am 08:03 Cloudy with Heavy Rain 48 9 48 9 100 100 NNE 15 24 29.47 998 2 3.21868 N/A
8:53 am 08:53 Cloudy with Rain 49 9.4 48 8.9 97 97 NNE 9 15 29.46 998 5 8.0467 0.19 4.826
9:42 am 09:42 Cloudy with Rain 48 9 48 9 100 100 N 9 15 29.5 999 7 11.26538 N/A
9:53 am 09:53 Cloudy with Light Rain 49 9.4 48 8.9 97 97 NNW 10 17 29.46 998 3 4.82802 0.05 1.27
10:40 am 10:40 Cloudy with Light Rain 48 9 46 8 94 94 N 7 11 29.53 1000 3 4.82802 N/A
10:43 am 10:43 Cloudy with Light Rain 48 8.9 47 8.3 96 96 N 8 13 29.53 1000 2.5 4.02335 0.05 1.27
10:47 am 10:47 Cloudy with Rain 48 9 46 8 94 94 NNW 9 15 29.53 1000 1.75 2.816345 0.06 1.524
10:53 am 10:53 Cloudy with Light Rain 48 8.9 48 8.9 100 100 N 9 15 29.49 999 1.75 2.816345 0.06 1.524
11:01 am 11:01 Cloudy with Light Rain 49 9.4 48 8.9 97 97 NNW 9 15 29.53 1000 2 3.21868 0.01 0.254
11:14 am 11:14 Cloudy with Light Rain 48 9 48 9 100 100 NNW 8 13 29.53 1000 2.5 4.02335 N/A
11:33 am 11:33 Cloudy with Light Rain 49 9.4 48 8.9 97 97 NNW 8 13 29.53 1000 2.5 4.02335 0.02 0.508
11:43 am 11:43 Cloudy with Light Rain 49 9.4 48 8.9 97 97 NNW 8 13 29.53 1000 3 4.82802 0.03 0.762
11:53 am 11:53 Cloudy with Light Rain 48 8.9 47 8.3 96 96 NNW 13 20 29.5 999 3 4.82802 0.03 0.762
12:05 pm 12:05 Cloudy with Light Rain 48 8.9 47 8.3 96 96 NNW 13 20 29.53 1000 3 4.82802 N/A
12:20 pm 12:20 Cloudy with Light Rain 48 9 48 9 100 100 N 12 19 29.53 1000 2 3.21868 N/A
12:27 pm 12:27 Cloudy with Light Rain 48 8.9 48 8.9 100 100 NNW 10 17 29.53 1000 2 3.21868 0.01 0.254
12:39 pm 12:39 Cloudy with Light Rain 49 9.4 47 8.3 93 93 NNW 9 15 29.53 1000 2 3.21868 0.01 0.254
12:53 pm 12:53 Cloudy with Light Rain 49 9.4 48 8.9 97 97 N 9 15 29.52 1000 2 3.21868 0.01 0.254
1:53 pm 13:53 Cloudy with Light Rain 49 9.4 47 8.3 93 93 N 12 19 29.52 1000 2 3.21868 N/A
1:56 pm 13:56 Cloudy with Light Rain 48 9 46 8 94 94 N 13 20 29.56 1001 4 6.43736 N/A
1:59 pm 13:59 Cloudy with Light Rain 49 9.4 48 8.9 97 97 N 13 20 29.56 1001 4 6.43736 N/A
2:53 pm 14:53 Cloudy with Light Rain 49 9.4 47 8.3 93 93 N 12 19 29.53 1000 4 6.43736 N/A
3:53 pm 15:53 Cloudy with Light Rain 49 9.4 47 8.3 93 93 N 15 24 29.54 1000 7 11.26538 N/A
4:10 pm 16:10 Cloudy with Light Rain 48 9 46 8 94 94 NNW 13 20 29.59 1002 2.5 4.02335 N/A
4:30 pm 16:30 Cloudy with Light Rain 48 9 46 8 94 94 N 12 19 29.59 1002 5 8.0467 N/A
4:53 pm 16:53 Cloudy with Light Rain 48 8.9 47 8.3 96 96 N 9 15 29.56 1001 3 4.82802 0.01 0.254
5:25 pm 17:25 Cloudy with Light Rain 48 8.9 47 8.3 96 96 N 16 26 29.59 1002 2 3.21868 0.01 0.254
5:53 pm 17:53 Cloudy with Light Rain 48 8.9 47 8.3 96 96 N 12 19 29.59 1002 2 3.21868 0.01 0.254
6:53 pm 18:53 Cloudy with Light Rain 47 8.3 46 7.8 97 97 N 17 28 29.62 1003 2.5 4.02335 0.02 0.508
7:50 pm 19:50 Cloudy with Light Rain 46 8 46 8 100 100 N 13 20 29.68 1005 4 6.43736 N/A
7:53 pm 19:53 Cloudy with Light Rain 47 8.3 46 7.8 97 97 NNW 18 30 29.64 1004 5 8.0467 0.02 0.508
8:53 pm 20:53 Cloudy 47 8.3 43 6.1 86 86 N 14 22 29.66 1005 10 16.0934 0.02 0.508
9:53 pm 21:53 Cloudy 47 8.3 44 6.7 90 90 NNW 6 9 29.67 1005 10 16.0934 0.02 0.508
10:53 pm 22:53 Clear 47 8.3 45 7.2 93 93 W 7 11 29.67 1005 10 16.0934 N/A
11:53 pm 23:53 Cloudy 48 8.9 45 7.2 89 89 NW 5 7 29.68 1005 10 16.0934 N/A

Powered by AerisWeather